Location: Veytaux
(46.4185°N, 6.9320°E)
Time: 12:22:36
(UTC+00:00)

Tiangong - Visible Passes

Search period start: 12 August 2022 00:00
Search period end: 22 August 2022 00:00
Orbit: 379 x 386 km, 41.5° (Epoch: 12 August)

Date Brightness Start Highest point End Pass type
(mag) Time Alt. Az. Time Alt. Az. Time Alt. Az.
15 Aug 0.0 19:40:30 10° S 19:41:42 12° SSE 19:41:42 12° SSE visible
16 Aug -0.5 20:15:11 10° SW 20:16:54 20° S 20:16:54 20° S visible
17 Aug -0.4 19:15:23 10° SSW 19:17:29 17° SSE 19:19:37 10° ESE visible
17 Aug 0.2 20:50:57 10° WSW 20:51:49 16° SW 20:51:49 16° SW visible
18 Aug -1.1 19:50:45 10° SW 19:53:29 28° S 19:54:22 24° SE visible
19 Aug -1.0 20:26:41 10° WSW 20:28:56 30° SSW 20:28:56 30° SSW visible
20 Aug -1.2 19:26:20 10° WSW 19:29:11 31° S 19:31:14 15° ESE visible
20 Aug 0.6 21:02:52 10° WSW 21:03:23 13° WSW 21:03:23 13° WSW visible
21 Aug -1.2 20:02:22 10° WSW 20:05:11 30° S 20:05:36 29° S visible
